Regional Weather Roundup
Issued by NWS Northern Indiana

Home | Current Version | Previous Version | Text Only | Print | Product List | Glossary On
Versions: 1 2 3 4 5 6 7 8 9 10 11 12 13 14 15 16 17 18 19 20 21 22 23 24 25 26 27 28 29 30 31 32 33 34 35 36 37 38 39 40 41 42 43 44 45 46 47 48 49 50
000
ASUS43 KIWX 100910
RWRIWX

KIWX WEATHER ROUNDUP
NATIONAL WEATHER SERVICE NORTHERN INDIANA
400 AM EST SAT DEC 10 2016

NOTE: "FAIR" INDICATES FEW OR NO CLOUDS BELOW 12,000 FEET WITH NO
SIGNIFICANT WEATHER AND/OR OBSTRUCTIONS TO VISIBILITY.

* THESE STATIONS ARE NOT UNDER NWS QUALITY CONTROL. THEY ALSO MAY NOT
  REPORT WEATHER SUCH AS PRECIPITATION OR FOG.

INZ001>027-101000-
NORTHERN INDIANA

CITY           SKY/WX    TMP DP  RH WIND       PRES   REMARKS
GARY*          MOCLDY    22  15  74 W6        30.53S WCI  15
VALPARAISO     CLOUDY    20  13  74 W6        30.51S WCI  12
MICHIGAN CITY* CLOUDY    21  14  73 SW9       30.51R WCI  11
LAPORTE*       CLOUDY    19  12  74 W8        30.51S WCI   9
KNOX*          CLOUDY    19   0  42 W6        30.51F WCI  11
SOUTH BEND     CLOUDY    19  13  77 W14       30.48F WCI   6
GOSHEN         CLOUDY    20  12  71 W12       30.47F WCI   8
MONTICELLO*    CLOUDY    23  10  58 W6        30.52F WCI  15
LOGANSPORT*    CLOUDY    23  14  68 W5        30.53F WCI  17
ROCHESTER*     PTCLDY    23  18  80 SW5       30.51F WCI  17
WARSAW*        CLOUDY    21  12  68 W9        30.49S WCI  11
ANGOLA*        CLOUDY    19  16  86 W8        30.44F WCI   9
FORT WAYNE     MOCLDY    20  12  71 W9        30.51R WCI   9
HUNTINGTON*    PTCLDY    18  12  78 W6        30.51F WCI  10
PERU/GRISSOM   CLOUDY    21  13  71 W5        30.49F WCI  15
MARION*        CLOUDY    20  15  80 W5        30.52F WCI  13

$$
INZ028>050-101000-
CENTRAL INDIANA

CITY           SKY/WX    TMP DP  RH WIND       PRES   REMARKS
LAFAYETTE      CLOUDY    22  17  81 W6        30.53F WCI  14
KOKOMO*        CLOUDY    22  14  71 NW6       30.52F WCI  14
MUNCIE*        CLOUDY    23  15  71 W7        30.51S WCI  15
INDIANAPOLIS   CLOUDY    21  16  81 W7        30.52F WCI  12

$$
MIZ043>046-050>051-056>058-064>065-071>073-077>080-101000-
SOUTHWEST LOWER MICHIGAN

CITY           SKY/WX    TMP DP  RH WIND       PRES   REMARKS
BATTLE CREEK   LGT SNOW  21  19  92 SW8       30.43S FOG     WCI  11
BENTON HARBOR  CLOUDY    26  14  60 W13       30.46S WCI  15
COLDWATER*     FLURRIES  21  18  87 SW8       30.44F WCI  11
HILLSDALE*     FLURRIES  19  16  86 W7        30.41S WCI  10
HOLLAND        FLURRIES  25  19  78 W7        30.43F WCI  17
GRAND RAPIDS   LGT SNOW  21  17  84 W3        30.42F FOG
KALAMAZOO      LGT SNOW  22  17  81 SW8       30.43F VSB 1   WCI  12
STURGIS*       CLOUDY    20  17  85 SW8       30.44F WCI  11
THREE RIVERS*  LGT SNOW  21  17  86 SW6       30.46S WCI  13

$$
OHZ001>008-015>018-024>025-101000-
NORTHWEST OHIO

CITY           SKY/WX    TMP DP  RH WIND       PRES   REMARKS
WAUSEON*       CLOUDY    21  16  79 W13       30.46R WCI   9
DEFIANCE       CLOUDY    23  13  65 W6        30.49R WCI  16
FINDLAY        CLOUDY    22  14  71 W14       30.47R WCI   9
TOLEDO EXPRESS CLOUDY    23  16  74 W16       30.46S WCI  10
TOLEDO METCALF CLOUDY    24  17  74 W13       30.47R WCI  12
LIMA           PTCLDY    21  17  84 W14       30.48R WCI   8

$$
AND FOR LAKE MICHIGAN COASTAL AND OPEN LAKE BUOY OBSERVATIONS

STATION/POSITION TEMP    WIND        PRES    VSBY  WAVE
                 AIR SEA DIR/SP/G                  HT/PER
                 (F)     (DEG/KT/KT) (MB)    (MI)  (FT/S)
CALUMET HARBOR    20     250/  6/  9 1032.5S
BURNS HARBOR      24     290/ 16/ 20 1033.2R
SAINT JOSEPH      28     250/ 14/ 20 1032.2

$$
&&




USA.gov is the U.S. government's official web portal to all federal, state and local government web resources and services.